Preview of NWS' New Version of Forecast
This preview is not operational and should not be used for support decisions.

Regional Weather Roundup (RWR)

Issued by National Weather Service (NWS)

                            
000
ASPQ40 PGUM 202310
RWRPQ 
WEATHER ROUNDUP FOR THE MARIANAS AND MICRONESIA
NATIONAL WEATHER SERVICE TIYAN GU
900 AM CHST THU FEB 21 2019

GUZ001>004-210000-
MARIANA ISLANDS-
  
CITY           SKY/WX    TMP DP  RH WIND       PRES   REMARKS
GUAM AIRPORT   SUNNY     81  77  89 NE14      29.95                   
ANDERSEN AFB   NOT AVBL                                               
ROTA AIRPORT   PTSUNNY   77  72  83 NE15      29.94R                  
TINIAN AP      PTSUNNY  N/A N/A N/A E17       29.95R                  
SAIPAN AP      PTSUNNY   81  72  74 NE17G29   29.96R                  

$$

PMZ161-210000-
REPUBLIC OF PALAU-
  
CITY           SKY/WX    TMP DP  RH WIND       PRES   REMARKS
KOROR AP       PTSUNNY   79  73  83 N6        29.93R                  
KOROR WSO      NOT AVBL                                               

$$

PMZ171>174-210000-
FEDERATED STATES OF MICRONESIA-
  
CITY           SKY/WX    TMP DP  RH WIND       PRES   REMARKS
YAP AIRPORT    CLOUDY    79  75  89 VRB7      29.92                   
CHUUK AP       LGT RAIN  79  75  89 SE12G28   29.67F                  
POHNPEI AP     CLOUDY    84  77  79 E8        29.83  HX  94           
POHNPEI WSO    CLOUDY    84  73  70 NE6       29.87  HX  91           
KOSRAE AP      CLOUDY    79  73  83 VRB3      29.85                   

$$

PMZ181-210000-
REPUBLIC OF THE MARSHALL ISLANDS-
  
CITY           SKY/WX    TMP DP  RH WIND       PRES   REMARKS
KWAJALEIN AP   MOSUNNY   84  72  65 E18G25    29.90S                  
MAJURO AP      PTSUNNY   86  75  70 NE23      29.87  HX  95           
MAJURO WSO     PTSUNNY   84  73  70 E20       29.86  HX  91           

$$